Bennington, NE

1:32 PM CST on February 27, 2017 (GMT -0600)
Blair Municipal

Weather History for KBTA - June, 2013

Change the Weather History Date:

Sunday, June 23, 2013

  Actual Average (KOMA) Record (KOMA)
Temperature  
Mean Temperature 72 °F -  
Max Temperature 79 °F 84 °F 104 °F (1937)
Min Temperature 64 °F 62 °F 48 °F (1972)
Cooling Degree Days 7    
Growing Degree Days 22 (Base 50)    
Moisture  
Dew Point 65 °F    
Average Humidity 77    
Maximum Humidity 90    
Minimum Humidity 60    
Precipitation  
Precipitation 0.48 in - - ()
Sea Level Pressure  
Sea Level Pressure 29.87 in    
Wind  
Wind Speed 14 mph (SSE)    
Max Wind Speed 28 mph    
Max Gust Speed 36 mph    
Visibility 10 miles    
Events Rain , Thunderstorm    
Averages and records for this station are not official NWS values.
T = Trace of Precipitation, MM = Missing Value Source: NWS Daily Summary

Daily Weather History Graph

Daily Weather History Graph

Search for Another Location

Airport or City:

Trip Planner

Search our weather history database for the weather conditions in past years. The results will help you decide how hot, cold, wet, or windy it might be!

Date:

Astronomy

Jun. 23, 2013 Rise Set
Actual Time 5:51 AM CDT 9:01 PM CDT
Civil Twilight 5:17 AM CDT 9:35 PM CDT
Nautical Twilight 4:34 AM CDT 10:19 PM CDT
Astronomical Twilight 3:41 AM CDT 11:11 PM CDT
Moon 9:14 PM CDT (6/23) 6:11 AM CDT (6/23)
Length of Visible Light 16h 18m
Length of Day
15h 10m
Full, 100% of the Moon is Illuminated
Jun 23
Full
Jun 29
Last Quarter
Jul 8
New
Jul 15
First Quarter
Jul 22
Full

Hourly Weather History & Observations

Time (CDT) Temp. Heat Index Dew Point Humidity Pressure Visibility Wind Dir Wind Speed Gust Speed Precip Events Conditions
12:15 AM 80.1 °F 82.0 °F 65.7 °F 61% 29.80 in 10.0 mi SSE 23.0 mph 28.8 mph N/A   Clear
12:35 AM 79.9 °F - 65.3 °F 61% 29.77 in 10.0 mi SSE 21.9 mph 27.6 mph N/A   Clear
12:55 AM 79.9 °F - 64.8 °F 60% 29.77 in 10.0 mi South 27.6 mph 35.7 mph N/A   Clear
1:15 AM 79.7 °F - 64.6 °F 60% 29.77 in 10.0 mi South 24.2 mph 33.4 mph N/A   Clear
1:35 AM 79.2 °F - 65.3 °F 62% 29.77 in 10.0 mi South 20.7 mph 31.1 mph N/A   Clear
1:55 AM 78.8 °F - 66.4 °F 66% 29.78 in 10.0 mi South 23.0 mph 33.4 mph N/A   Clear
2:15 AM 78.1 °F - 67.1 °F 69% 29.78 in 10.0 mi South 26.5 mph 32.2 mph N/A   Clear
2:35 AM 78.1 °F - 66.9 °F 68% 29.78 in 10.0 mi South 20.7 mph 31.1 mph N/A   Clear
2:55 AM 78.1 °F - 66.6 °F 68% 29.78 in 10.0 mi South 20.7 mph 28.8 mph N/A   Clear
3:15 AM 78.1 °F - 66.4 °F 67% 29.78 in 10.0 mi South 19.6 mph 28.8 mph N/A Thunderstorm Clear
3:35 AM 77.9 °F - 66.4 °F 68% 29.80 in 10.0 mi South 17.3 mph 25.3 mph N/A   Scattered Clouds
3:55 AM 77.9 °F - 65.8 °F 66% 29.84 in 10.0 mi WSW 15.0 mph 18.4 mph N/A Thunderstorm Overcast
4:15 AM 71.4 °F - 64.4 °F 78% 29.87 in 7.0 mi WNW 16.1 mph 27.6 mph 0.01 in Rain , Thunderstorm Thunderstorms and Rain
4:35 AM 66.7 °F - 63.5 °F 89% 29.87 in 7.0 mi WNW 12.7 mph 21.9 mph 0.12 in Rain , Thunderstorm Light Thunderstorms and Rain
4:55 AM 66.7 °F - 63.5 °F 89% 29.92 in 10.0 mi West 10.4 mph 20.7 mph 0.13 in Rain , Thunderstorm Thunderstorms and Rain
5:15 AM 65.7 °F - 62.8 °F 90% 29.90 in 7.0 mi NNW 19.6 mph 26.5 mph 0.14 in Rain , Thunderstorm Heavy Thunderstorms and Rain
5:35 AM 65.7 °F - 62.6 °F 90% 29.87 in 5.0 mi North 18.4 mph 24.2 mph 0.26 in Rain , Thunderstorm Heavy Thunderstorms and Rain
5:55 AM 66.2 °F - 61.9 °F 86% 29.89 in 10.0 mi NNW 15.0 mph 21.9 mph 0.27 in Rain , Thunderstorm Light Thunderstorms and Rain
6:15 AM 66.2 °F - 62.2 °F 87% 29.91 in 10.0 mi North 10.4 mph 18.4 mph N/A   Drizzle
6:35 AM 66.2 °F - 61.7 °F 85% 29.94 in 10.0 mi NNW 5.8 mph - N/A Rain , Thunderstorm Light Thunderstorms and Rain
6:55 AM 65.5 °F - 61.9 °F 88% 29.91 in 10.0 mi ENE 8.1 mph - 0.02 in Rain Rain
7:15 AM 64.9 °F - 62.1 °F 90% 29.83 in 7.0 mi NE 15.0 mph - 0.04 in Rain Rain
7:35 AM 64.8 °F - 61.3 °F 89% 29.77 in 10.0 mi East 23.0 mph - 0.05 in Rain , Thunderstorm Light Thunderstorms and Rain
7:55 AM 64.4 °F - 61.2 °F 89% 29.75 in 10.0 mi East 19.6 mph 27.6 mph 0.06 in   Scattered Clouds
8:15 AM 65.1 °F - 61.2 °F 87% 29.77 in 10.0 mi ESE 21.9 mph 29.9 mph N/A   Clear
8:35 AM 65.7 °F - 61.7 °F 87% 29.78 in 10.0 mi East 13.8 mph 28.8 mph N/A   Clear
8:55 AM 66.2 °F - 61.5 °F 85% 29.84 in 10.0 mi Calm Calm - N/A   Clear
9:15 AM 66.4 °F - 61.7 °F 85% 29.83 in 10.0 mi SSE 17.3 mph 21.9 mph N/A   Clear
9:35 AM 66.2 °F - 61.9 °F 86% 29.84 in 10.0 mi SSW 6.9 mph - N/A   Clear
9:55 AM 66.6 °F - 62.1 °F 85% 29.88 in 10.0 mi WSW 6.9 mph - N/A   Clear
10:15 AM 67.1 °F - 63.0 °F 87% 29.89 in 10.0 mi SSW 6.9 mph - N/A   Clear
10:35 AM 67.1 °F - 62.4 °F 85% 29.89 in 10.0 mi WSW 8.1 mph - N/A   Clear
10:55 AM 67.8 °F - 62.8 °F 84% 29.89 in 10.0 mi WSW 5.8 mph - N/A   Clear
11:15 AM 68.9 °F - 63.1 °F 82% 29.89 in 10.0 mi WSW 9.2 mph - N/A   Clear
11:35 AM 70.2 °F - 63.5 °F 79% 29.91 in 10.0 mi West 5.8 mph - N/A   Scattered Clouds
11:55 AM 70.3 °F - 63.3 °F 78% 29.91 in 10.0 mi West 5.8 mph - N/A   Scattered Clouds
12:15 PM 71.1 °F - 63.9 °F 78% 29.92 in 10.0 mi WSW 8.1 mph - N/A   Scattered Clouds
12:35 PM 72.1 °F - 64.4 °F 77% 29.91 in 10.0 mi WNW 4.6 mph - N/A   Scattered Clouds
12:55 PM 72.9 °F - 64.9 °F 76% 29.91 in 10.0 mi SSW 4.6 mph - N/A   Mostly Cloudy
1:15 PM 73.2 °F - 64.6 °F 74% 29.90 in 10.0 mi SSW 6.9 mph - N/A   Overcast
1:35 PM 74.3 °F - 65.1 °F 73% 29.91 in 10.0 mi SSW 6.9 mph - N/A   Overcast
1:55 PM 73.8 °F - 64.8 °F 73% 29.91 in 10.0 mi SW 6.9 mph - N/A   Overcast
2:15 PM 74.3 °F - 64.9 °F 72% 29.91 in 10.0 mi SSW 6.9 mph - N/A   Overcast
2:35 PM 75.2 °F - 65.8 °F 73% 29.90 in 10.0 mi South 8.1 mph - N/A   Overcast
2:55 PM 75.2 °F - 65.7 °F 72% 29.90 in 10.0 mi South 4.6 mph - N/A   Overcast
3:15 PM 75.6 °F - 65.8 °F 72% 29.90 in 10.0 mi SSE 8.1 mph - N/A   Mostly Cloudy
3:35 PM 75.6 °F - 65.8 °F 72% 29.90 in 10.0 mi South 6.9 mph - N/A   Mostly Cloudy
3:55 PM 75.2 °F - 66.2 °F 73% 29.90 in 10.0 mi SSE 8.1 mph - N/A   Overcast
4:15 PM 75.4 °F - 66.4 °F 73% 29.89 in 10.0 mi SSE 6.9 mph - N/A   Overcast
4:35 PM 75.7 °F - 66.7 °F 74% 29.89 in 10.0 mi SSW 5.8 mph - N/A   Overcast
4:55 PM 76.1 °F - 66.4 °F 72% 29.89 in 10.0 mi Calm Calm - N/A   Overcast
5:15 PM 76.5 °F - 66.7 °F 72% 29.88 in 10.0 mi Calm Calm - N/A   Overcast
5:35 PM 77.4 °F - 66.6 °F 69% 29.88 in 10.0 mi SE 3.5 mph - N/A   Mostly Cloudy
5:55 PM 77.7 °F - 66.6 °F 68% 29.88 in 10.0 mi Calm Calm - N/A   Scattered Clouds
6:15 PM 77.5 °F - 66.2 °F 68% 29.88 in 10.0 mi SSE 4.6 mph - N/A   Clear
6:35 PM 77.9 °F - 66.0 °F 67% 29.88 in 10.0 mi Calm Calm - N/A   Clear
6:55 PM 77.5 °F - 66.0 °F 68% 29.88 in 10.0 mi East 3.5 mph - N/A   Clear
7:15 PM 77.4 °F - 65.8 °F 67% 29.88 in 10.0 mi East 3.5 mph - N/A   Clear
7:35 PM 77.0 °F - 65.8 °F 68% 29.88 in 10.0 mi Calm Calm - N/A   Clear
7:55 PM 77.0 °F - 66.0 °F 69% 29.88 in 10.0 mi East 3.5 mph - N/A   Clear
8:15 PM 76.1 °F - 67.3 °F 74% 29.88 in 10.0 mi ENE 3.5 mph - N/A   Scattered Clouds
8:35 PM 75.4 °F - 67.3 °F 76% 29.88 in 10.0 mi ENE 4.6 mph - N/A   Mostly Cloudy
8:55 PM 75.0 °F - 68.0 °F 79% 29.88 in 10.0 mi Calm Calm - N/A   Mostly Cloudy
9:15 PM 74.8 °F - 68.0 °F 79% 29.88 in 10.0 mi NE 3.5 mph - N/A   Overcast
9:35 PM 73.9 °F - 68.0 °F 82% 29.89 in 10.0 mi ENE 3.5 mph - N/A   Overcast
9:55 PM 74.3 °F - 68.2 °F 81% 29.90 in 10.0 mi East 4.6 mph - N/A   Overcast
10:15 PM 74.3 °F - 67.6 °F 80% 29.90 in 10.0 mi East 5.8 mph - N/A   Overcast
10:35 PM 73.8 °F - 67.8 °F 82% 29.91 in 10.0 mi East 5.8 mph - N/A   Overcast
10:55 PM 73.8 °F - 68.0 °F 82% 29.91 in 10.0 mi East 4.6 mph - N/A   Overcast
11:15 PM 73.4 °F - 68.2 °F 84% 29.91 in 10.0 mi East 5.8 mph - N/A   Mostly Cloudy
11:35 PM 73.4 °F - 68.0 °F 83% 29.91 in 10.0 mi East 4.6 mph - N/A   Mostly Cloudy
11:55 PM 72.7 °F - 68.2 °F 86% 29.91 in 10.0 mi ENE 4.6 mph - N/A   Scattered Clouds